When you browse on this site, cookies collect data to enhance your experience and personalize the content and advertising you see.
Visit our Privacy Policy to learn more. By continuing to use the site, you agree to this use of cookies and data.
  • en France
  • Liste des pays
  • À 7 jours
  • Température de l'eau
  • Carte météo
  • Widgets météo
  • user-avatar
    Se connecter

    Météo par heure à Erfurt

    Ce jour, 1 Juin, Lundi

    Heure Température Précipitation Vent Pression Humidité
    00:00 +11°C° 0 mm 1 m/s 749 mmHg 93%
    01:00 +10°C° 0 mm 1 m/s 749 mmHg 94%
    02:00 +9°C° 0 mm 1 m/s 749 mmHg 94%
    03:00 +8°C° 0 mm 1 m/s 749 mmHg 94%
    04:00 +8°C° 0 mm 1 m/s 749 mmHg 95%
    05:00 +9°C° 0 mm 1 m/s 749 mmHg 92%
    06:00 +10°C° 0 mm 1 m/s 749 mmHg 89%
    07:00 +12°C° 0 mm 1 m/s 749 mmHg 86%
    08:00 +14°C° 0 mm 2 m/s 749 mmHg 80%
    09:00 +14°C° 0 mm 3 m/s 749 mmHg 74%
    10:00 +17°C° 0 mm 3 m/s 749 mmHg 68%
    11:00 +18°C° 0 mm 4 m/s 749 mmHg 66%
    12:00 +19°C° 0 mm 4 m/s 749 mmHg 64%
    13:00 +20°C° 0 mm 4 m/s 749 mmHg 62%
    14:00 +20°C° 0 mm 4 m/s 749 mmHg 62%
    15:00 +20°C° 0 mm 4 m/s 748 mmHg 63%
    16:00 +21°C° 0 mm 4 m/s 748 mmHg 63%
    17:00 +20°C° 0 mm 4 m/s 748 mmHg 67%
    18:00 +19°C° 0 mm 3 m/s 748 mmHg 71%
    19:00 +18°C° 0 mm 3 m/s 748 mmHg 75%
    20:00 +16°C° 0 mm 3 m/s 748 mmHg 78%
    21:00 +14°C° 0 mm 2 m/s 748 mmHg 80%
    22:00 +13°C° 0 mm 2 m/s 748 mmHg 83%
    23:00 +12°C° 0 mm 1 m/s 748 mmHg 85%

    Demain, 2 Juin, Mardi

    Heure Température Précipitation Vent Pression Humidité
    00:00 +11°C° 0 mm 1 m/s 748 mmHg 88%
    01:00 +10°C° 0 mm 1 m/s 748 mmHg 90%
    02:00 +10°C° 0 mm 1 m/s 748 mmHg 91%
    03:00 +10°C° 0 mm 1 m/s 748 mmHg 91%
    04:00 +9°C° 0 mm 1 m/s 748 mmHg 92%
    05:00 +11°C° 0 mm 1 m/s 748 mmHg 88%
    06:00 +12°C° 0 mm 1 m/s 748 mmHg 84%
    07:00 +14°C° 0 mm 1 m/s 748 mmHg 80%
    08:00 +15°C° 0 mm 1 m/s 748 mmHg 74%
    09:00 +17°C° 0 mm 2 m/s 748 mmHg 69%
    10:00 +18°C° 0 mm 2 m/s 748 mmHg 64%
    11:00 +19°C° 0 mm 2 m/s 747 mmHg 62%
    12:00 +20°C° 0 mm 3 m/s 747 mmHg 59%
    13:00 +21°C° 0 mm 3 m/s 746 mmHg 57%
    14:00 +21°C° 0 mm 3 m/s 746 mmHg 58%
    15:00 +21°C° 0 mm 3 m/s 745 mmHg 59%
    16:00 +21°C° 0 mm 3 m/s 745 mmHg 60%
    17:00 +20°C° 0 mm 2 m/s 744 mmHg 65%
    18:00 +19°C° 0 mm 2 m/s 744 mmHg 70%
    19:00 +20°C° 0 mm 1 m/s 744 mmHg 75%
    20:00 +18°C° 0 mm 1 m/s 743 mmHg 78%
    21:00 +15°C° 0 mm 1 m/s 743 mmHg 82%
    22:00 +13°C° 0 mm 0 m/s 743 mmHg 85%
    23:00 +13°C° 0 mm 0 m/s 743 mmHg 86%

    Après-demain, 3 Juin, Mercredi

    Heure Température Précipitation Vent Pression Humidité
    00:00 +12°C° 0 mm 0 m/s 742 mmHg 86%
    01:00 +12°C° 0 mm 0 m/s 742 mmHg 87%
    02:00 +13°C° 0 mm 1 m/s 742 mmHg 87%
    03:00 +13°C° 0 mm 1 m/s 741 mmHg 87%
    04:00 +12°C° 0 mm 1 m/s 741 mmHg 87%
    05:00 +14°C° 0 mm 1 m/s 741 mmHg 82%
    06:00 +15°C° 0 mm 1 m/s 741 mmHg 78%
    07:00 +18°C° 0 mm 1 m/s 740 mmHg 74%
    08:00 +19°C° 0 mm 1 m/s 740 mmHg 67%
    09:00 +21°C° 0 mm 1 m/s 740 mmHg 61%
    10:00 +22°C° 0 mm 1 m/s 740 mmHg 55%
    11:00 +23°C° 0 mm 1 m/s 739 mmHg 52%
    12:00 +24°C° 0 mm 1 m/s 739 mmHg 49%
    13:00 +25°C° 0 mm 1 m/s 738 mmHg 46%
    14:00 +25°C° 0 mm 1 m/s 738 mmHg 46%
    15:00 +25°C° 0 mm 1 m/s 737 mmHg 46%
    16:00 +25°C° 0 mm 1 m/s 737 mmHg 46%
    17:00 +24°C° 0.1 mm 2 m/s 736 mmHg 55%
    18:00 +21°C° 0.1 mm 2 m/s 736 mmHg 65%
    19:00 +20°C° 0.1 mm 2 m/s 735 mmHg 75%
    20:00 +18°C° 0 mm 2 m/s 735 mmHg 79%
    21:00 +17°C° 0 mm 2 m/s 735 mmHg 82%
    22:00 +15°C° 0 mm 2 m/s 735 mmHg 86%
    23:00 +15°C° 0 mm 2 m/s 735 mmHg 85%

    4 Juin, Jeudi

    Heure Température Précipitation Vent Pression Humidité
    00:00 +14°C° 0 mm 2 m/s 734 mmHg 85%
    01:00 +14°C° 0 mm 2 m/s 734 mmHg 85%
    02:00 +14°C° 0 mm 2 m/s 733 mmHg 84%
    03:00 +14°C° 0 mm 2 m/s 733 mmHg 84%
    04:00 +14°C° 0 mm 2 m/s 733 mmHg 83%
    05:00 +15°C° 0 mm 2 m/s 732 mmHg 81%
    06:00 +16°C° 0 mm 2 m/s 732 mmHg 79%
    07:00 +17°C° 0 mm 2 m/s 732 mmHg 78%
    08:00 +17°C° 0.2 mm 2 m/s 732 mmHg 80%
    09:00 +17°C° 0.2 mm 2 m/s 731 mmHg 82%
    10:00 +17°C° 0.2 mm 2 m/s 731 mmHg 85%
    11:00 +17°C° 0.4 mm 2 m/s 731 mmHg 86%
    12:00 +17°C° 0.4 mm 3 m/s 730 mmHg 87%
    13:00 +17°C° 0.4 mm 3 m/s 730 mmHg 88%
    14:00 +17°C° 1 mm 3 m/s 730 mmHg 88%
    15:00 +18°C° 1 mm 4 m/s 730 mmHg 87%
    16:00 +18°C° 1 mm 4 m/s 730 mmHg 87%
    17:00 +17°C° 0.5 mm 4 m/s 730 mmHg 88%
    18:00 +17°C° 0.5 mm 3 m/s 730 mmHg 89%
    19:00 +16°C° 0.5 mm 2 m/s 730 mmHg 90%
    20:00 +15°C° 0.2 mm 2 m/s 730 mmHg 91%
    21:00 +14°C° 0.2 mm 2 m/s 730 mmHg 93%
    22:00 +13°C° 0.2 mm 2 m/s 731 mmHg 94%
    23:00 +12°C° 0.3 mm 2 m/s 730 mmHg 95%

    5 Juin, Vendredi

    Heure Température Précipitation Vent Pression Humidité
    00:00 +12°C° 0.3 mm 2 m/s 730 mmHg 95%
    01:00 +12°C° 0.3 mm 2 m/s 730 mmHg 96%
    02:00 +10°C° 0.5 mm 2 m/s 731 mmHg 95%
    03:00 +10°C° 0.5 mm 3 m/s 731 mmHg 95%
    04:00 +10°C° 0.5 mm 3 m/s 731 mmHg 94%
    05:00 +10°C° 0 mm 3 m/s 732 mmHg 91%
    06:00 +10°C° 0 mm 4 m/s 732 mmHg 89%
    07:00 +10°C° 0 mm 4 m/s 733 mmHg 86%
    08:00 +10°C° 0.1 mm 5 m/s 733 mmHg 78%
    09:00 +12°C° 0.1 mm 5 m/s 733 mmHg 71%
    10:00 +13°C° 0.1 mm 5 m/s 733 mmHg 63%
    11:00 +14°C° 0 mm 5 m/s 733 mmHg 59%
    12:00 +15°C° 0 mm 6 m/s 733 mmHg 55%
    13:00 +16°C° 0 mm 6 m/s 733 mmHg 50%
    14:00 +16°C° 0 mm 6 m/s 732 mmHg 51%
    15:00 +16°C° 0 mm 6 m/s 732 mmHg 52%
    16:00 +16°C° 0 mm 6 m/s 732 mmHg 53%
    17:00 +16°C° 0 mm 5 m/s 732 mmHg 57%
    18:00 +15°C° 0 mm 4 m/s 732 mmHg 62%
    19:00 +15°C° 0 mm 4 m/s 732 mmHg 66%
    20:00 +14°C° 0 mm 4 m/s 732 mmHg 65%
    21:00 +13°C° 0 mm 5 m/s 732 mmHg 65%
    22:00 +13°C° 0 mm 5 m/s 732 mmHg 64%
    23:00 +13°C° 0 mm 6 m/s 731 mmHg 65%

    6 Juin, Samedi

    Heure Température Précipitation Vent Pression Humidité
    00:00 +13°C° 0 mm 6 m/s 731 mmHg 66%
    01:00 +12°C° 0 mm 7 m/s 730 mmHg 67%
    02:00 +12°C° 0 mm 7 m/s 730 mmHg 68%
    03:00 +12°C° 0 mm 8 m/s 730 mmHg 69%
    04:00 +12°C° 0 mm 8 m/s 730 mmHg 69%
    05:00 +12°C° 0.1 mm 8 m/s 730 mmHg 73%
    06:00 +12°C° 0.1 mm 8 m/s 730 mmHg 77%
    07:00 +12°C° 0.1 mm 7 m/s 730 mmHg 81%
    08:00 +11°C° 0.7 mm 7 m/s 731 mmHg 83%
    09:00 +11°C° 0.7 mm 7 m/s 731 mmHg 84%
    10:00 +10°C° 0.7 mm 7 m/s 731 mmHg 86%
    11:00 +12°C° 0.1 mm 8 m/s 732 mmHg 74%
    12:00 +15°C° 0.1 mm 8 m/s 732 mmHg 62%
    13:00 +17°C° 0.1 mm 9 m/s 733 mmHg 51%
    14:00 +17°C° 0.1 mm 9 m/s 733 mmHg 53%
    15:00 +16°C° 0.1 mm 8 m/s 733 mmHg 55%
    16:00 +15°C° 0.1 mm 8 m/s 734 mmHg 57%
    17:00 +14°C° 0.1 mm 7 m/s 734 mmHg 63%
    18:00 +13°C° 0.1 mm 6 m/s 735 mmHg 68%
    19:00 +12°C° 0.1 mm 5 m/s 735 mmHg 74%
    20:00 +11°C° 0 mm 4 m/s 736 mmHg 75%
    21:00 +10°C° 0 mm 4 m/s 736 mmHg 76%
    22:00 +8°C° 0 mm 4 m/s 737 mmHg 77%
    23:00 +7°C° 0 mm 4 m/s 737 mmHg 77%
    Voir plus